This is the latest recevied weather packets stored in our database for station/object W1REE. If no packets are shown the sender has not sent any weather packets the latest 10 day(s).
| Time | Temp. | Humidity | Pressure | Rain* | Wind** | Luminosity | Snow |
|---|---|---|---|---|---|---|---|
| 1778108569 | 4.44° C | 63% | 1020.7 hPa | 0 mm | - | 234 W/m² | - |
| 1778108265 | 5° C | 60% | 1020.7 hPa | 0 mm | - | 289 W/m² | - |
| 1778107963 | 5° C | 60% | 1020.7 hPa | 0 mm | - | 248 W/m² | - |
| 1778107659 | 5° C | 57% | 1020.5 hPa | 0 mm | - | 329 W/m² | - |
| 1778107357 | 5° C | 57% | 1020.7 hPa | 0 mm | - | 256 W/m² | - |
| 1778107053 | 5.56° C | 60% | 1020.7 hPa | 0 mm | - | 656 W/m² | - |
| 1778106748 | 5.56° C | 61% | 1020.6 hPa | 0 mm | - | 289 W/m² | - |
| 1778106445 | 4.44° C | 71% | 1020.6 hPa | 0 mm | - | 419 W/m² | - |
| 1778106141 | 3.89° C | 66% | 1020.6 hPa | 0 mm | - | 654 W/m² | - |
| 1778105839 | 3.89° C | 72% | 1020.7 hPa | 0 mm | - | 294 W/m² | - |
| 1778105537 | 3.33° C | 69% | 1020.6 hPa | 0 mm | - | 256 W/m² | - |
| 1778105234 | 3.33° C | 68% | 1020.8 hPa | 0 mm | - | 216 W/m² | - |
| 1778104928 | 2.78° C | 69% | 1021 hPa | 0 mm | - | 165 W/m² | - |
| 1778104625 | 2.78° C | 69% | 1021 hPa | 0 mm | - | 121 W/m² | - |
| 1778104321 | 2.78° C | 69% | 1021 hPa | 0 mm | - | 97 W/m² | - |
| 1778104018 | 2.78° C | 72% | 1021.2 hPa | 0 mm | - | 86 W/m² | - |
| 1778103715 | 2.78° C | 70% | 1021.2 hPa | 0 mm | - | 82 W/m² | - |
| 1778103414 | 2.78° C | 73% | 1021.1 hPa | 0 mm | - | 78 W/m² | - |
| 1778103110 | 2.78° C | 70% | 1021 hPa | 0 mm | - | 68 W/m² | - |
| 1778102808 | 2.78° C | 73% | 1021.1 hPa | 0 mm | - | 71 W/m² | - |
| 1778102502 | 2.78° C | 71% | 1020.8 hPa | 0 mm | - | 75 W/m² | - |
| 1778102198 | 3.33° C | 71% | 1020.8 hPa | 0 mm | - | 98 W/m² | - |
| 1778101895 | 3.33° C | 71% | 1020.7 hPa | 0 mm | - | 125 W/m² | - |
| 1778101592 | 2.78° C | 70% | 1020.8 hPa | 0 mm | - | 164 W/m² | - |
| 1778101288 | 2.78° C | 71% | 1021 hPa | 0 mm | - | 154 W/m² | - |
* Rain latest hour (hover to see other rain measurements)
** Current wind speed in m/s (hover to see current wind gust speed)